Location: Neuvy Saint Sepulchre
(46.5953°N, 1.8122°E)
Time: 19:16:47
(UTC+01:00)

ISS - Pass Details

Date: 26 November 2021
Orbit: 417 x 422 km, 51.6° (Epoch: 06 December)

Event Time Altitude Azimuth Distance (km) Brightness Sun altitude
Rises 19:24:27 0° 280° (W) 2,377 1.3 -22.6°
Reaches altitude 10° 19:26:41 10° 290° (WNW) 1,512 -0.1 -23.0°
Enters shadow 19:28:53 28° 323° (NW) 827 -2.0 -23.4°
